Погода в Жалтыре

Погода в Жалтыре : погода сейчас, прогноз погоды и архив. Всё, что Вы хотите узнать о погоде в Жалтыре!

Поиск расширенной информации на нашем сайте:

Другие новости

Новости СМИ2

Главная страница сайта

Новости сайта

02.10.2013

Напоминаем, что на нашем новом сайте вы можете получить высокодетализированные прогнозы погоды по пунктам России, СНГ и мира (включающие важные для авиации метеовеличины, такие как направление и скорость ветра, видимость, явления погоды, количество и форма облачности, нижняя и верхняя граница облачности), а также ознакомиться с разнообразными материалами по авиационной метеорологии и подборкой полезных ссылок на эту тему.

Сайт Метеоцентр.Азия посвящён разработке технологий оптимизации авиаметеорологического обслуживания, включая проектирование и перспективное создание нескольких автоматизированных авиаметеорологических систем:
- система выпуска высокодетальных прогностических карт явлений погоды для нижнего воздушного пространства по России и ближнему зарубежью;
- система верификации прогнозов TAF (выпускаемых синоптиками официальных АМСГ РФ и ближнего зарубежья) и AUTOTAF (выпускаемых сайтом Метеоцентр.Азия) - выявление ошибок, онлайн-сопоставление с фактической погодой METAR, автоматическое внесение коррективов в прогнозы при резком отклонении фактической погоды от прогноза, подсчёт оправдываемости прогнозов по элементам и в целом;
- система обработки, анализа и отображения авиаметеорологической информации для применения провайдерами метеорологической информации.

Рекомендуем: традиционные стили ушу

Погода в Жалтыре - сегодня

Время (UTC), дата Ветер
(°,м/с) 
Видим.   Явления Облачность Т
(°С)
Тd
(°С)
f(%) Тe
(°С)
Pmin
(гПа)
dP
(гПа)
Po
(мм)
O2
(г/м3)
Тmin Tmax R s Состояние
почвы
18 19.06.17 140 (ЮВ) н/о    ясно 
+17.2 +5.3 45 +18  1007.2  729  275    +28.8       
21 19.06.17 150 (ЮВ) н/о    ясно 
+15.7 +5.9 52 +16  1006.7  -0.6  728  277           
00 20.06.17 160 (Ю) 4000 м    8/8 600 м 
[Sc]
+15.9 +8.1 60 +17  1006.2  -0.5  728  276           
03 20.06.17 190 (Ю) 4000 м    8/8 600 м кучево-дожд. 
[Cb cap]
+20.6 +12.2 59 +25  1005.3  -0.3  728  270           
06 20.06.17 250 (З) 4000 м    8/5 600 м кучево-дожд., средняя 
[Cb calv|Ac cuf]
+24.3 +7.2 33 +24  1004.5  -0.4  728  268  +15         
09 20.06.17 240 (ЮЗ) 4000 м    9/9 600 м кучево-дожд. 
[Cb cap]
+24.7 +6.1 30 +25  1003.7  -0.7  727  268           
12 20.06.17 270 (З) 4000 м    9/9 600 м кучево-дожд. 
[Cb cap]
+24.2 +6.7 32 +24  1004.3  0.5  727  268           
15 20.06.17 260 (З) 4000 м    8/8 600 м кучево-дожд. 
[Cb cap]
+21 +8.2 44 +21  1004.6  727  271    +26.6       
18 20.06.17 210 (ЮЗ) н/о    3/1 600 м верхняя 
[Sc diur, vesp|Ci]
+15.5 +9.2 66 +17  1004.6  -0.7  727  275    +26.6       
21 20.06.17 200 (Ю) н/о    ясно 
+13.4 +8.3 71 +14  1004.5  -0.3  727  278           
00 21.06.17 180 (Ю) 4000 м    ясно 
+12.7 +7.7 72 +13  1005  0.4  727  279           
03 21.06.17 200 (Ю) 4000 м    ясно 
+19.8 +9.4 51 +22  1004.3  0.2  727  271           
06 21.06.17 240 (ЮЗ) 4000 м    8/8 1000 м 
[Cu med, cong]
+27.6 +10.7 35 +30  1002.8  -0.6  727  264  +11.7         
09 21.06.17 220 (ЮЗ) 4000 м    6/6 1000 м 
[Cu med, cong]
+28.2 +6.7 26 +28  1001.6  -1.1  726  264           
12 21.06.17 320 (СЗ) 4000 м    8/8 600 м 
[Sc diur, vesp]
+27.5 +7.7 29 +28  1001  -0.7  725  264           
15 21.06.17 340 (С) 4000 м    8/8 600 м кучево-дожд. 
[Cb calv]
+24.5 +10.5 41 +27  1001.7  0.4  726  266    +30       
18 21.06.17 360 (С) н/о    6/6 600 м 
[Sc]
+17.8 +10.9 64 +22  1004.4  1.8  727  273    +30       
21 21.06.17 тихо ()   н/о    ясно 
+13.1 +8.6 74 +13  1005.6  0.6  727  278           
00 22.06.17 тихо ()   4000 м    ясно 
+11 +8.2 83 +11  1007  1.1  728  281           
03 22.06.17 280 (З) 4000 м    ясно 
+18.8 +9.2 54 +21  1007.1  729  273           
06 22.06.17 340 (С) 4000 м    3/0 верхняя 
[Ci fib]
+23 +7.8 38 +23  1006.7  0.1  729  270  +11         
09 22.06.17 270 (З) 4000 м    5/0 верхняя 
[Ci fib]
+25.4 +7.5 32 +25  1005.8  -0.6  729  267           
12 22.06.17 180 (Ю) 4000 м    8/0 верхняя 
[Ci]
+26.1 +7.9 31 +26  1005.5  -0.2  728  267           
15 22.06.17 040 (СВ) 4000 м    8/5 600 м кучево-дожд., средняя 
[Cb cap|Ac cuf]
+25.1 +7.3 32 +25  1006.1  0.5  729  268    +28       
18 22.06.17 040 (СВ) н/о    3/0 средняя 
[Ac cuf]
+18.9 +8.9 52 +20  1006.2  -0.6  728  273    +28       
Время (UTC), дата Ветер
(°,м/с) 
Видим.   Явления Облачность Т
(°С)
Тd
(°С)
f(%) Тe
(°С)
Pmin
(гПа)
dP
(гПа)
Po
(мм)
O2
(г/м3)
Тmin Tmax R s Состояние
почвы

Для получения пояснительной информации подведите курсор к названию столбца.

ПОГОДА в Жалтыре - архив

Всё, что Вы хотите узнать о погоде в Жалтыре - удобно и подробно!

Выберите нужную дату (начиная с 1 января 2015* года) и нажмите кнопку "Найти".
Будут отображены архивные сводки погоды по пункту Жалтыр, начиная с указанной даты.


Отображать данные в формате CSV (для использования в таблицах Excel)


Внимание! Наш архив погоды предназначен исключительно для личного некоммерческого использования в познавательных целях. Если Вам необходимы официальные справки о состоянии погоды (для производственных, юридических, коммерческих и т.п. целей), обращайтесь в органы Росгидромета.

*Примечание: данная дата относится к архиву по метеостанциям СССР (Россия, СНГ, Балтия).
Архив по метеостанциям Зарубежной Европы и Азии (кроме Китая) хранится 10 дней, по другим регионам земного шара (Китай, Африка, Америка, Австралия, Океания) - 1 день.

Жалтыр - район местоположения метеостанции


Название, широта, долгота, высота метеостанции:
Жалтыр 51.6°ш. 69.8°д. 620 м над ур. моря [Казахстан]

Дополнительная информация

В oтличие oт бoльшинства пoгoдных сайтoв мы публикуем пoдрoбную метеoинфoрмацию в детальнoм прoфессиoнальнoм фoрмате.

Характеристики температуры и влажнoсти вoздуха измеряются на высoте 2 м в тени вдали oт зданий и деревьев.
Скoрoсть ветра измеряется на высoте 10 м (на урoвне рoста челoвека скoрoсть ветра ниже в 1.5-2 раза). Если метеoстанция нахoдится в гoрoде или в лесу, тo скoрoсть ветра занижена на 2-4 м/с пo сравнению с oткрытым местoм. Скoрoсть ветра над акватoриями крупных рек и oзёр, а также на вершинах хoлмoв на 2-5 м/с выше, чем в oбычных услoвиях.
Атмoсфернoе давление в разных тoчках местнoсти мoжет значительнo oтличаться oт давления на метеoстанции, в зависимoсти oт услoвий рельефа (при пoдъёме на 10 м давление пoнижается примернo на 1 мм рт.ст.).